TimePDT,TemperatureF,Dew PointF,Humidity,Sea Level PressureIn,VisibilityMPH,Wind Direction,Wind SpeedMPH,Gust SpeedMPH,PrecipitationIn,Events,Conditions,WindDirDegrees,DateUTC
12:53 AM,42.1,36.0,79,30.17,10.0,Calm,Calm,-,N/A,,Mostly Cloudy,0,2014-05-11 07:53:00
1:53 AM,39.9,35.1,83,30.17,10.0,Calm,Calm,-,N/A,,Mostly Cloudy,0,2014-05-11 08:53:00
2:53 AM,46.0,37.0,71,30.17,10.0,SW,4.6,-,N/A,,Overcast,230,2014-05-11 09:53:00
3:53 AM,45.0,36.0,71,30.17,10.0,WSW,12.7,19.6,N/A,,Overcast,240,2014-05-11 10:53:00
4:53 AM,44.1,37.0,76,30.19,10.0,West,10.4,-,0.00,,Overcast,260,2014-05-11 11:53:00
5:53 AM,43.0,37.0,80,30.22,10.0,West,3.5,-,0.00,,Overcast,280,2014-05-11 12:53:00
6:53 AM,43.0,37.0,80,30.25,10.0,WNW,5.8,-,N/A,,Mostly Cloudy,300,2014-05-11 13:53:00
7:53 AM,45.0,37.9,76,30.27,10.0,West,10.4,-,N/A,,Overcast,280,2014-05-11 14:53:00
8:02 AM,45.0,37.9,76,30.24,10.0,West,11.5,-,N/A,,Overcast,280,2014-05-11 15:02:00
8:53 AM,46.0,37.9,73,30.27,10.0,West,5.8,16.1,N/A,,Overcast,280,2014-05-11 15:53:00
9:53 AM,48.9,39.9,71,30.28,10.0,West,10.4,-,N/A,,Overcast,260,2014-05-11 16:53:00
11:48 AM,50.0,41.0,71,30.27,10.0,West,8.1,-,N/A,,Mostly Cloudy,280,2014-05-11 18:48:00
11:53 AM,51.1,41.0,68,30.30,10.0,WNW,5.8,-,N/A,,Scattered Clouds,290,2014-05-11 18:53:00
12:19 PM,50.0,39.0,66,30.27,10.0,Calm,Calm,-,N/A,,Mostly Cloudy,0,2014-05-11 19:19:00
12:41 PM,50.0,39.0,66,30.27,10.0,NNE,10.4,-,N/A,,Overcast,20,2014-05-11 19:41:00
12:53 PM,50.0,39.0,66,30.30,10.0,NNE,9.2,-,N/A,,Overcast,20,2014-05-11 19:53:00
1:53 PM,53.1,36.0,52,30.29,10.0,North,12.7,-,N/A,,Mostly Cloudy,360,2014-05-11 20:53:00
2:53 PM,55.9,34.0,44,30.28,10.0,Calm,Calm,-,N/A,,Partly Cloudy,0,2014-05-11 21:53:00
3:53 PM,57.9,35.1,42,30.27,10.0,North,9.2,-,N/A,,Mostly Cloudy,360,2014-05-11 22:53:00
4:53 PM,57.0,34.0,42,30.27,10.0,NNW,6.9,-,N/A,,Partly Cloudy,330,2014-05-11 23:53:00
5:53 PM,57.9,30.9,36,30.27,10.0,NE,9.2,-,N/A,,Partly Cloudy,40,2014-05-12 00:53:00
6:53 PM,55.9,28.9,36,30.29,10.0,NE,13.8,-,N/A,,Clear,50,2014-05-12 01:53:00
7:53 PM,52.0,28.0,40,30.32,10.0,NE,9.2,-,N/A,,Partly Cloudy,50,2014-05-12 02:53:00
9:53 PM,46.9,28.0,48,30.36,10.0,NE,10.4,-,N/A,,Clear,40,2014-05-12 04:53:00
10:53 PM,42.1,28.9,60,30.38,10.0,NE,3.5,-,N/A,,Clear,40,2014-05-12 05:53:00
11:53 PM,42.1,28.0,58,30.38,10.0,ENE,8.1,-,N/A,,Clear,70,2014-05-12 06:53:00